Weather History for Lago Vista, TX

Change the Weather History Date:

Friday, November 8, 2013

  Actual Average (KATT) Record (KATT)
Temperature  
Mean Temperature 56 °F 64 °F  
Max Temperature 62 °F 74 °F 88 °F (1989)
Min Temperature 50 °F 54 °F 30 °F (1959)
Degree Days  
Heating Degree Days 9 4  
Month to date heating degree days 27  
Since 1 July heating degree days 58  
Cooling Degree Days 0 3  
Month to date cooling degree days 28  
Year to date cooling degree days 3093  
Growing Degree Days 6 (Base 50)    
Moisture  
Dew Point 38 °F    
Average Humidity 54    
Maximum Humidity 76    
Minimum Humidity 32    
Precipitation  
Precipitation 0.00 in 0.11 in 2.91 in (1990)
Month to date precipitation 0.86  
Year to date precipitation 29.82  
Snow  
Snow 0.00 in - - ()
Month to date snowfall  
Since 1 July snowfall  
Since 1 September snowfall  
Snow Depth -    
Sea Level Pressure  
Sea Level Pressure 30.29 in    
Wind  
Wind Speed 5 mph (ESE)    
Max Wind Speed 10 mph    
Max Gust Speed 17 mph    
Visibility 10 miles    
Events Rain    
T = Trace of Precipitation, MM = Missing Value Source: NWS Daily Summary

Daily Weather History Graph

Daily Weather History Graph

Search for Another Location

Airport:

Trip Planner

Search our weather history database for the weather conditions in past years. The results will help you decide how hot, cold, wet, or windy it might be!

Date:

Astronomy

Nov. 08, 2013 Rise Set
Actual Time 6:52 AM CST 5:38 PM CST
Civil Twilight 6:27 AM CST 6:03 PM CST
Nautical Twilight 5:58 AM CST 6:32 PM CST
Astronomical Twilight 5:29 AM CST 7:00 PM CST
Moon 11:48 AM CST (11/8) 10:59 PM CST (11/8)
Length of Visible Light 11h 36m
Length of Day
10h 46m
Waxing Crescent, 33% of the Moon is Illuminated
Nov 8
Waxing Crescent
Nov 9
First Quarter
Nov 17
Full
Nov 25
Last Quarter
Dec 2
New

Hourly Weather History & Observations

Time (CST) Temp. Dew Point Humidity Pressure Visibility Wind Dir Wind Speed Gust Speed Precip Events Conditions
12:15 AM 51.8 °F 39.2 °F 62% 30.40 in 10.0 mi NE 5.8 mph - N/A   Clear
12:35 AM 51.8 °F 41.0 °F 67% 30.39 in 10.0 mi NE 5.8 mph - N/A   Clear
12:55 AM 50.0 °F 41.0 °F 71% 30.38 in 10.0 mi NNE 5.8 mph - N/A   Clear
1:15 AM 50.0 °F 41.0 °F 71% 30.38 in 10.0 mi NE 4.6 mph - N/A   Clear
1:35 AM 51.8 °F 39.2 °F 62% 30.39 in 10.0 mi NE 5.8 mph - N/A   Clear
1:55 AM 50.0 °F 39.2 °F 66% 30.39 in 10.0 mi NE 5.8 mph - N/A   Clear
2:15 AM 50.0 °F 39.2 °F 66% 30.37 in 10.0 mi NE 6.9 mph - N/A   Clear
2:35 AM 50.0 °F 39.2 °F 66% 30.37 in 10.0 mi NE 5.8 mph - N/A   Clear
2:55 AM 50.0 °F 39.2 °F 66% 30.35 in 10.0 mi NE 5.8 mph - N/A   Clear
3:15 AM 50.0 °F 39.2 °F 66% 30.35 in 10.0 mi NE 6.9 mph - N/A   Clear
3:35 AM 50.0 °F 39.2 °F 66% 30.34 in 10.0 mi NE 8.1 mph - N/A   Clear
3:55 AM 50.0 °F 39.2 °F 66% 30.34 in 10.0 mi ENE 3.5 mph - N/A   Clear
4:15 AM 50.0 °F 37.4 °F 62% 30.33 in 10.0 mi ENE 5.8 mph - N/A   Clear
4:35 AM 50.0 °F 37.4 °F 62% 30.34 in 10.0 mi NE 6.9 mph - N/A   Clear
4:55 AM 50.0 °F 37.4 °F 62% 30.34 in 10.0 mi ENE 5.8 mph - N/A   Clear
5:15 AM 50.0 °F 37.4 °F 62% 30.35 in 10.0 mi ENE 4.6 mph - N/A   Clear
5:35 AM 50.0 °F 37.4 °F 62% 30.35 in 10.0 mi ENE 4.6 mph - N/A   Clear
5:55 AM 50.0 °F 37.4 °F 62% 30.34 in 10.0 mi ENE 3.5 mph - N/A   Clear
6:15 AM 50.0 °F 39.2 °F 66% 30.35 in 10.0 mi NE 3.5 mph - N/A   Clear
6:35 AM 50.0 °F 37.4 °F 62% 30.37 in 10.0 mi Calm Calm - N/A   Clear
6:55 AM 50.0 °F 39.2 °F 66% 30.36 in 10.0 mi ENE 3.5 mph - N/A   Clear
7:15 AM 50.0 °F 39.2 °F 66% 30.36 in 10.0 mi ENE 3.5 mph - N/A   Clear
7:35 AM 50.0 °F 39.2 °F 66% 30.37 in 10.0 mi ENE 3.5 mph - N/A   Clear
7:55 AM 50.0 °F 42.8 °F 76% 30.38 in 10.0 mi Calm Calm - N/A   Clear
8:15 AM 51.8 °F 41.0 °F 67% 30.37 in 10.0 mi East 3.5 mph - N/A   Clear
8:35 AM 51.8 °F 41.0 °F 67% 30.37 in 10.0 mi East 4.6 mph - N/A   Clear
8:55 AM 51.8 °F 41.0 °F 67% 30.38 in 10.0 mi East 3.5 mph - N/A   Clear
9:15 AM 53.6 °F 41.0 °F 62% 30.38 in 10.0 mi Calm Calm - N/A   Clear
9:35 AM 53.6 °F 41.0 °F 62% 30.38 in 10.0 mi ESE 3.5 mph - N/A   Clear
9:55 AM 55.4 °F 41.0 °F 58% 30.37 in 4.0 mi SE 5.8 mph - N/A   Haze
10:15 AM 55.4 °F 39.2 °F 54% 30.37 in 5.0 mi ESE 6.9 mph - N/A   Haze
10:35 AM 57.2 °F 37.4 °F 48% 30.36 in 10.0 mi ESE 4.6 mph - N/A   Clear
10:55 AM 59.0 °F 35.6 °F 42% 30.35 in 10.0 mi SE 5.8 mph - N/A   Clear
11:15 AM 59.0 °F 33.8 °F 39% 30.35 in 10.0 mi SSE 6.9 mph - N/A   Clear
11:35 AM 59.0 °F 35.6 °F 42% 30.34 in 10.0 mi SSE 6.9 mph - N/A   Clear
11:55 AM 62.6 °F 35.6 °F 37% 30.33 in 10.0 mi SSE 8.1 mph - N/A   Clear
12:15 PM 62.6 °F 33.8 °F 34% 30.31 in 10.0 mi SE 10.4 mph 17.3 mph N/A   Clear
12:35 PM 62.6 °F 32.0 °F 32% 30.31 in 10.0 mi SSE 9.2 mph - N/A   Clear
12:55 PM 60.8 °F 33.8 °F 36% 30.30 in 10.0 mi SE 6.9 mph - N/A   Clear
1:15 PM 62.6 °F 33.8 °F 34% 30.28 in 10.0 mi SSE 6.9 mph - N/A   Clear
1:35 PM 62.6 °F 35.6 °F 37% 30.27 in 10.0 mi ESE 6.9 mph - N/A   Clear
1:55 PM 62.6 °F 33.8 °F 34% 30.26 in 10.0 mi SE 5.8 mph - N/A   Clear
2:15 PM 62.6 °F 33.8 °F 34% 30.25 in 10.0 mi SSE 6.9 mph - N/A   Clear
2:35 PM 62.6 °F 33.8 °F 34% 30.25 in 10.0 mi SE 8.1 mph - N/A   Clear
2:55 PM 62.6 °F 33.8 °F 34% 30.24 in 10.0 mi SSE 4.6 mph - N/A   Clear
3:15 PM 62.6 °F 35.6 °F 37% 30.24 in 10.0 mi SE 6.9 mph - N/A   Clear
3:35 PM 62.6 °F 35.6 °F 37% 30.23 in 10.0 mi South 8.1 mph - N/A   Clear
3:55 PM 60.8 °F 33.8 °F 36% 30.22 in 10.0 mi South 5.8 mph - N/A   Clear
4:15 PM 60.8 °F 35.6 °F 39% 30.23 in 10.0 mi Calm Calm - N/A   Clear
4:35 PM 60.8 °F 35.6 °F 39% 30.21 in 10.0 mi SSE 4.6 mph - N/A   Clear
4:55 PM 59.0 °F 35.6 °F 42% 30.21 in 10.0 mi SSE 4.6 mph - N/A   Clear
5:15 PM 59.0 °F 37.4 °F 45% 30.21 in 10.0 mi SSE 4.6 mph - N/A   Clear
5:35 PM 59.0 °F 37.4 °F 45% 30.21 in 10.0 mi SSE 3.5 mph - N/A   Clear
5:55 PM 57.2 °F 37.4 °F 48% 30.21 in 10.0 mi Calm Calm - N/A   Clear
6:15 PM 57.2 °F 35.6 °F 44% 30.21 in 10.0 mi Calm Calm - N/A   Scattered Clouds
6:35 PM 57.2 °F 37.4 °F 48% 30.21 in 10.0 mi Calm Calm - N/A   Scattered Clouds
6:55 PM 55.4 °F 37.4 °F 51% 30.21 in 10.0 mi Calm Calm - N/A   Mostly Cloudy
7:15 PM 55.4 °F 41.0 °F 58% 30.22 in 10.0 mi Calm Calm - N/A   Overcast
7:35 PM 57.2 °F 39.2 °F 51% 30.22 in 10.0 mi Calm Calm - N/A   Overcast
7:55 PM 57.2 °F 41.0 °F 55% 30.21 in 10.0 mi Calm Calm - N/A   Overcast
8:15 PM 55.4 °F 41.0 °F 58% 30.21 in 10.0 mi Calm Calm - N/A   Overcast
8:35 PM 55.4 °F 41.0 °F 58% 30.21 in 10.0 mi Calm Calm - N/A   Overcast
8:55 PM 55.4 °F 41.0 °F 58% 30.20 in 10.0 mi South 3.5 mph - N/A   Overcast
9:15 PM 55.4 °F 41.0 °F 58% 30.20 in 10.0 mi Calm Calm - N/A   Mostly Cloudy
9:35 PM 55.4 °F 41.0 °F 58% 30.20 in 10.0 mi SSE 3.5 mph - N/A   Mostly Cloudy
9:55 PM 55.4 °F 41.0 °F 58% 30.19 in 10.0 mi Calm Calm - N/A   Mostly Cloudy
10:15 PM 55.4 °F 41.0 °F 58% 30.19 in 10.0 mi SSE 3.5 mph - N/A   Overcast
10:35 PM 55.4 °F 41.0 °F 58% 30.20 in 10.0 mi South 4.6 mph - N/A   Overcast
10:55 PM 55.4 °F 42.8 °F 63% 30.19 in 10.0 mi SSE 4.6 mph - N/A Rain Light Rain
11:15 PM 55.4 °F 42.8 °F 63% 30.19 in 10.0 mi South 4.6 mph - N/A   Overcast
11:35 PM 55.4 °F 42.8 °F 63% 30.18 in 10.0 mi SSE 3.5 mph - N/A   Overcast
11:55 PM 55.4 °F 42.8 °F 63% 30.17 in 10.0 mi SSE 3.5 mph - N/A   Overcast